This is the latest recevied weather packets stored in our database for station/object KD8OZS. If no packets are shown the sender has not sent any weather packets the latest 10 day(s).
| Time | Temp. | Humidity | Pressure | Rain* | Wind** | Luminosity | Snow |
|---|---|---|---|---|---|---|---|
| 1787812307 | 17.78° C | 92% | 1005.4 hPa | 0 mm | - | 0 W/m² | - |
| 1787812003 | 18.33° C | 91% | 1005.7 hPa | 0 mm | - | 0 W/m² | - |
| 1787811702 | 18.33° C | 91% | 1005.9 hPa | 0 mm | - | 0 W/m² | - |
| 1787811398 | 18.89° C | 90% | 1005.9 hPa | 0 mm | - | 0 W/m² | - |
| 1787811097 | 18.89° C | 90% | 1005.9 hPa | 0 mm | - | 0 W/m² | - |
| 1787810793 | 18.89° C | 89% | 1006 hPa | 0 mm | - | 0 W/m² | - |
| 1787810488 | 19.44° C | 89% | 1006.1 hPa | 0 mm | - | 0 W/m² | - |
| 1787810187 | 19.44° C | 89% | 1006.2 hPa | 0 mm | - | 0 W/m² | - |
| 1787809883 | 19.44° C | 88% | 1006.3 hPa | 0 mm | - | 0 W/m² | - |
| 1787809582 | 20° C | 87% | 1006.3 hPa | 0 mm | - | 0 W/m² | - |
| 1787809278 | 20° C | 87% | 1006 hPa | 0 mm | - | 0 W/m² | - |
| 1787808974 | 20° C | 87% | 1006.3 hPa | 0 mm | - | 0 W/m² | - |
| 1787808669 | 20° C | 87% | 1006.4 hPa | 0 mm | - | 0 W/m² | - |
| 1787808369 | 20° C | 87% | 1006.1 hPa | 0 mm | - | 0 W/m² | - |
| 1787808068 | 19.44° C | 87% | 1006.3 hPa | 0 mm | - | 0 W/m² | - |
| 1787807762 | 19.44° C | 89% | 1006.4 hPa | 0 mm | - | 0 W/m² | - |
| 1787807457 | 19.44° C | 89% | 1006.3 hPa | 0 mm | - | 0 W/m² | - |
| 1787807153 | 19.44° C | 89% | 1006.4 hPa | 0 mm | - | 0 W/m² | - |
| 1787806852 | 19.44° C | 90% | 1006.4 hPa | 0 mm | - | 0 W/m² | - |
| 1787806551 | 20° C | 89% | 1006.7 hPa | 0 mm | - | 0 W/m² | - |
| 1787806245 | 20° C | 87% | 1006.6 hPa | 0 mm | - | 0 W/m² | - |
| 1787805940 | 19.44° C | 88% | 1006.7 hPa | 0 mm | - | 0 W/m² | - |
| 1787805636 | 20° C | 88% | 1006.6 hPa | 0 mm | - | 0 W/m² | - |
| 1787805332 | 20° C | 86% | 1006.3 hPa | 0 mm | - | 0 W/m² | - |
| 1787805030 | 20° C | 86% | 1006.5 hPa | 0 mm | - | 0 W/m² | - |
* Rain latest hour (hover to see other rain measurements)
** Current wind speed in m/s (hover to see current wind gust speed)